Stündliche Wetter Holovashivka

Heute, 25 Juni, Freitag

Zeit Temperatur Niederschläge Wind Luftdruck Luftfeuchtigkeit
00:00 +24°C° 0 mm 3 m/S 747 mmHg 78%
01:00 +24°C° 0 mm 3 m/S 747 mmHg 76%
02:00 +22°C° 0 mm 3 m/S 747 mmHg 74%
03:00 +22°C° 0 mm 3 m/S 747 mmHg 75%
04:00 +22°C° 0 mm 3 m/S 747 mmHg 76%
05:00 +22°C° 0 mm 3 m/S 747 mmHg 77%
06:00 +25°C° 0 mm 4 m/S 747 mmHg 73%
07:00 +27°C° 0 mm 4 m/S 746 mmHg 69%
08:00 +28°C° 0 mm 4 m/S 746 mmHg 65%
09:00 +30°C° 0 mm 4 m/S 746 mmHg 60%
10:00 +32°C° 0 mm 4 m/S 746 mmHg 56%
11:00 +34°C° 0 mm 4 m/S 746 mmHg 52%
12:00 +34°C° 0 mm 4 m/S 746 mmHg 50%
13:00 +34°C° 0 mm 4 m/S 746 mmHg 49%
14:00 +35°C° 0 mm 4 m/S 746 mmHg 47%
15:00 +34°C° 0 mm 4 m/S 745 mmHg 51%
16:00 +34°C° 0 mm 4 m/S 745 mmHg 55%
17:00 +33°C° 0 mm 3 m/S 745 mmHg 59%
18:00 +30°C° 0.1 mm 3 m/S 745 mmHg 64%
19:00 +29°C° 0.1 mm 3 m/S 745 mmHg 69%
20:00 +27°C° 0.1 mm 3 m/S 745 mmHg 74%
21:00 +26°C° 0 mm 3 m/S 745 mmHg 77%
22:00 +26°C° 0 mm 2 m/S 745 mmHg 79%
23:00 +25°C° 0 mm 2 m/S 745 mmHg 81%

Morgen, 26 Juni, Samstag

Zeit Temperatur Niederschläge Wind Luftdruck Luftfeuchtigkeit
00:00 +24°C° 0 mm 2 m/S 745 mmHg 83%
01:00 +24°C° 0 mm 3 m/S 744 mmHg 85%
02:00 +22°C° 0 mm 3 m/S 744 mmHg 86%
03:00 +22°C° 0 mm 3 m/S 744 mmHg 86%
04:00 +22°C° 0 mm 3 m/S 744 mmHg 85%
05:00 +22°C° 0 mm 3 m/S 744 mmHg 85%
06:00 +25°C° 0 mm 3 m/S 744 mmHg 78%
07:00 +27°C° 0 mm 4 m/S 744 mmHg 72%
08:00 +29°C° 0 mm 4 m/S 744 mmHg 66%
09:00 +30°C° 0 mm 4 m/S 744 mmHg 61%
10:00 +32°C° 0 mm 4 m/S 744 mmHg 56%
11:00 +33°C° 0 mm 4 m/S 744 mmHg 52%
12:00 +34°C° 0 mm 4 m/S 744 mmHg 50%
13:00 +34°C° 0 mm 4 m/S 744 mmHg 48%
14:00 +35°C° 0 mm 4 m/S 744 mmHg 47%
15:00 +34°C° 0 mm 4 m/S 743 mmHg 51%
16:00 +34°C° 0 mm 4 m/S 743 mmHg 55%
17:00 +33°C° 0 mm 4 m/S 743 mmHg 60%
18:00 +30°C° 0 mm 4 m/S 743 mmHg 65%
19:00 +29°C° 0 mm 3 m/S 743 mmHg 70%
20:00 +27°C° 0 mm 3 m/S 742 mmHg 75%
21:00 +27°C° 0 mm 3 m/S 742 mmHg 76%
22:00 +26°C° 0 mm 3 m/S 742 mmHg 77%
23:00 +25°C° 0 mm 3 m/S 742 mmHg 78%

übermorgen, 27 Juni, Sonntag

Zeit Temperatur Niederschläge Wind Luftdruck Luftfeuchtigkeit
00:00 +25°C° 0 mm 3 m/S 742 mmHg 77%
01:00 +24°C° 0 mm 2 m/S 742 mmHg 76%
02:00 +24°C° 0 mm 2 m/S 742 mmHg 74%
03:00 +24°C° 0 mm 3 m/S 742 mmHg 77%
04:00 +24°C° 0 mm 3 m/S 742 mmHg 79%
05:00 +24°C° 0 mm 3 m/S 742 mmHg 82%
06:00 +25°C° 0 mm 3 m/S 742 mmHg 76%
07:00 +27°C° 0 mm 4 m/S 742 mmHg 70%
08:00 +29°C° 0 mm 4 m/S 742 mmHg 65%
09:00 +30°C° 0 mm 4 m/S 742 mmHg 61%
10:00 +31°C° 0 mm 3 m/S 742 mmHg 57%
11:00 +33°C° 0 mm 3 m/S 742 mmHg 53%
12:00 +34°C° 0 mm 3 m/S 742 mmHg 51%
13:00 +34°C° 0 mm 2 m/S 742 mmHg 49%
14:00 +35°C° 0 mm 2 m/S 741 mmHg 47%
15:00 +35°C° 0 mm 2 m/S 741 mmHg 49%
16:00 +35°C° 0 mm 2 m/S 741 mmHg 51%
17:00 +34°C° 0 mm 2 m/S 741 mmHg 53%
18:00 +30°C° 0.4 mm 2 m/S 741 mmHg 64%
19:00 +28°C° 0.4 mm 3 m/S 741 mmHg 74%
20:00 +25°C° 0.4 mm 3 m/S 741 mmHg 84%
21:00 +24°C° 2.1 mm 3 m/S 741 mmHg 88%
22:00 +22°C° 2.1 mm 3 m/S 741 mmHg 91%
23:00 +21°C° 2.1 mm 3 m/S 742 mmHg 95%

28 Juni, Montag

Zeit Temperatur Niederschläge Wind Luftdruck Luftfeuchtigkeit
00:00 +21°C° 0.2 mm 3 m/S 741 mmHg 95%
01:00 +21°C° 0.2 mm 2 m/S 741 mmHg 95%
02:00 +21°C° 0.2 mm 2 m/S 740 mmHg 95%
03:00 +21°C° 0.4 mm 2 m/S 741 mmHg 95%
04:00 +21°C° 0.4 mm 2 m/S 741 mmHg 95%
05:00 +22°C° 0.4 mm 1 m/S 741 mmHg 95%
06:00 +23°C° 0.2 mm 2 m/S 741 mmHg 93%
07:00 +23°C° 0.2 mm 2 m/S 741 mmHg 90%
08:00 +24°C° 0.2 mm 2 m/S 741 mmHg 88%
09:00 +24°C° 0.2 mm 3 m/S 742 mmHg 86%
10:00 +24°C° 0.2 mm 3 m/S 742 mmHg 85%
11:00 +23°C° 0.2 mm 4 m/S 742 mmHg 83%
12:00 +23°C° 0.1 mm 4 m/S 742 mmHg 82%
13:00 +23°C° 0.1 mm 4 m/S 742 mmHg 80%
14:00 +25°C° 0.1 mm 4 m/S 742 mmHg 79%
15:00 +23°C° 0 mm 4 m/S 742 mmHg 78%
16:00 +23°C° 0 mm 4 m/S 742 mmHg 78%
17:00 +23°C° 0 mm 4 m/S 742 mmHg 78%
18:00 +22°C° 0 mm 4 m/S 742 mmHg 82%
19:00 +21°C° 0 mm 4 m/S 742 mmHg 87%
20:00 +20°C° 0 mm 4 m/S 742 mmHg 92%
21:00 +20°C° 0.1 mm 5 m/S 742 mmHg 92%
22:00 +20°C° 0.1 mm 5 m/S 742 mmHg 92%
23:00 +20°C° 0.1 mm 5 m/S 742 mmHg 91%

29 Juni, Dienstag

Zeit Temperatur Niederschläge Wind Luftdruck Luftfeuchtigkeit
00:00 +19°C° 0 mm 6 m/S 742 mmHg 91%
01:00 +19°C° 0 mm 6 m/S 742 mmHg 90%
02:00 +19°C° 0 mm 6 m/S 742 mmHg 89%
03:00 +19°C° 0.1 mm 6 m/S 742 mmHg 88%
04:00 +17°C° 0.1 mm 6 m/S 742 mmHg 88%
05:00 +17°C° 0.1 mm 6 m/S 742 mmHg 87%
06:00 +18°C° 0.3 mm 7 m/S 742 mmHg 84%
07:00 +18°C° 0.3 mm 7 m/S 742 mmHg 81%
08:00 +20°C° 0.3 mm 7 m/S 743 mmHg 77%
09:00 +21°C° 0.2 mm 7 m/S 743 mmHg 73%
10:00 +22°C° 0.2 mm 7 m/S 743 mmHg 68%
11:00 +23°C° 0.2 mm 6 m/S 743 mmHg 64%
12:00 +23°C° 0.1 mm 6 m/S 743 mmHg 62%
13:00 +24°C° 0.1 mm 6 m/S 743 mmHg 60%
14:00 +24°C° 0.1 mm 6 m/S 743 mmHg 58%
15:00 +25°C° 0.3 mm 5 m/S 743 mmHg 62%
16:00 +23°C° 0.3 mm 4 m/S 743 mmHg 66%
17:00 +23°C° 0.3 mm 4 m/S 743 mmHg 70%
18:00 +21°C° 0.2 mm 3 m/S 743 mmHg 75%
19:00 +20°C° 0.2 mm 3 m/S 743 mmHg 81%
20:00 +19°C° 0.2 mm 3 m/S 743 mmHg 86%
21:00 +18°C° 0 mm 3 m/S 743 mmHg 88%
22:00 +17°C° 0 mm 3 m/S 742 mmHg 90%
23:00 +17°C° 0 mm 3 m/S 742 mmHg 92%

30 Juni, Mittwoch

Zeit Temperatur Niederschläge Wind Luftdruck Luftfeuchtigkeit
00:00 +17°C° 0 mm 3 m/S 742 mmHg 92%
01:00 +17°C° 0 mm 3 m/S 742 mmHg 92%
02:00 +17°C° 0 mm 3 m/S 742 mmHg 93%
03:00 +17°C° 0.1 mm 3 m/S 742 mmHg 92%
04:00 +17°C° 0.1 mm 3 m/S 742 mmHg 92%
05:00 +17°C° 0.1 mm 3 m/S 742 mmHg 91%
06:00 +17°C° 0.6 mm 3 m/S 742 mmHg 91%
07:00 +17°C° 0.6 mm 3 m/S 742 mmHg 91%
08:00 +17°C° 0.6 mm 3 m/S 742 mmHg 92%
09:00 +18°C° 0.9 mm 3 m/S 742 mmHg 91%
10:00 +18°C° 0.9 mm 4 m/S 742 mmHg 91%
11:00 +18°C° 0.9 mm 4 m/S 742 mmHg 90%
12:00 +19°C° 0.1 mm 4 m/S 742 mmHg 88%
13:00 +19°C° 0.1 mm 5 m/S 742 mmHg 86%
14:00 +20°C° 0.1 mm 5 m/S 742 mmHg 84%
15:00 +20°C° 0.6 mm 5 m/S 742 mmHg 83%
16:00 +21°C° 0.6 mm 5 m/S 742 mmHg 82%
17:00 +22°C° 0.6 mm 5 m/S 741 mmHg 81%
18:00 +21°C° 0.3 mm 5 m/S 742 mmHg 83%
19:00 +20°C° 0.3 mm 4 m/S 742 mmHg 86%
20:00 +19°C° 0.3 mm 4 m/S 742 mmHg 89%
21:00 +19°C° 0 mm 4 m/S 742 mmHg 89%
22:00 +18°C° 0 mm 3 m/S 741 mmHg 89%
23:00 +18°C° 0 mm 3 m/S 741 mmHg 89%
Mehr zeigen

Wir brauchen deine Erlaubnis

Meteoprog und unser Service Anbieter werden persönliche Daten aufbewahren, so wie Cookies, Geräte Bezeichnung oder ähnliche Technologien von deinem Gerät und Prozess, so wie Persönliche Daten Inhalte und Werbungen, genauso wie social Media und den Verkehr zu analysieren.

  • Aufbewahrung und/oder Zugang zu deiner Geräte Informationen.

    Cookies, Geräte Bezeichnung oder andere Informationen, können aufbewahrt oder Zugang zu deinem Gerät erhalten, für den Grund, der oben angegeben wird.

  • Personalisierte Werbung und Inhalte, Messungen, Einblick in das Publikum und Produkt Entwicklung.

    Werbungen und Inhalte können personalisiert werden, basierend auf ein Profil. Mehr Daten können besser personalisierte Werbungen und Inhalte hinzufügen. Werbung und Inhalte können gezeigt und gemessen werden. Einblicke über das Publikum, welche die Werbung gesehen haben und den Inhalt, können abgeleitet werden. So wie Daten können genutzt werden, um es zu verbessern oder die Benutzer Erfahrung zu verbessern das System und die Software.

Wenn du “Ich stimme zu” klickst, erlaubst du uns, die Cookies zu benutzen die Geräte Bezeichnung, den Web oder ähnliche Technologien zu benutzen. Deine Settings, können in deinem Gerät bei deinem Browser geändert werden.

Für den bestimmten Zweck, berechtigten Interessen beruhen darauf, mehr als auf den Inhalt. Du kannst mehr darüber in unseren Privaten und Cookie Politik lesen.